Flag for Germany Past Weather in Brühl (Rhineland), North Rhine-Westphalia, Germany — Yesterday and Last 2 Weeks

Now
64 °F

Overcast.


Feels Like: 64 °F
Forecast: 60 / 73 °F
Wind: 3 mph from Southwest

Location: Noervenich

Current Time: Jul 28, 2016 at 7:02:21 AM

Latest Report: Jul 28, 2016 at 6:00 AM


Visibility: 13 mi

Pressure: 30.01 "Hg

Humidity: 78%

Dew Point: 57 °F

Location of Brühl (Rhineland)Location

Past Weather in Brühl (Rhineland) — Graph

°F

Brühl (Rhineland) Temperature Yesterday

Maximum temperature yesterday: 75 °F (at 4:00 PM)
Minimum temperature yesterday: 58 °F (at 4:00 AM)
Average temperature yesterday: 66 °F

High & Low Weather Summary for the Past Weeks

 TemperatureHumidityPressure
High96 °F (Jul 20, 4:00 PM)96% (Jul 24, 3:00 AM)30.32 "Hg (Jul 24, 3:00 AM)
Low49 °F (Jul 14, 6:00 AM)25% (Jul 20, 4:00 PM)29.85 "Hg (Jul 20, 6:00 PM)
Average69 °F71%30.10 "Hg
* Reported Jul 13 6:00 AM — Jul 28 6:00 AM, Brühl (Rhineland), Weather by CustomWeather, © 2016

Note: Actual official high and low records may vary slightly from our data, if they occured in-between our weather recording intervals... More about our weather records

Advertising

Brühl (Rhineland) Weather History for the Previous 24 Hours

Scroll right to see more
 ConditionsComfort  
Time TempWeatherWind HumidityBarometerVisibility
6:00 AM
Thu, Jul 28
64 °FOvercast.3 mph78%30.01 "Hg12 mi
4:00 AM65 °FOvercast.2 mph75%30.02 "Hg19 mi
3:00 AM66 °FOvercast.1 mph73%30.03 "Hg19 mi
1:00 AM67 °FOvercast.2 mph69%30.04 "Hg19 mi
12:00 AM67 °FOvercast.3 mph68%30.05 "Hg19 mi
10:00 PM
Wed, Jul 27
69 °FOvercast.5 mph63%30.04 "Hg19 mi
9:00 PM70 °FOvercast.5 mph60%30.03 "Hg19 mi
7:00 PM73 °FOvercast.9 mph52%30.01 "Hg19 mi
6:00 PM74 °FPartly sunny.7 mph50%30.01 "Hg19 mi
4:00 PM75 °FOvercast.8 mph48%30.03 "Hg19 mi
3:00 PM74 °FOvercast.7 mph49%30.03 "Hg19 mi
1:00 PM72 °FScattered clouds.7 mph47%30.05 "Hg19 mi
12:00 PM72 °FPartly sunny.6 mph55%30.06 "Hg16 mi
10:00 AM66 °FPartly sunny.6 mph69%30.07 "Hg12 mi
9:00 AM63 °FPartly sunny.7 mph79%30.08 "Hg9 mi
7:00 AM60 °FOvercast.2 mph89%30.07 "Hg6 mi
Weather by CustomWeather, © 2016

See weather overviewHow to use our weather pages